GEFSMW_prec_meanprecacc_324.txt.gz
Total_Precipitation_Accumulation
2.04 2.45 2.76 3.31 3.91 4.33 4.74 4.91 4.96 4.86 4.68 4.34 4.03 3.80 3.56 3.34 3.08 2.90 2.79 2.72 2.63 2.85 3.34 3.14 3.40 3.32 3.33 3.37 3.42 3.55 3.45 3.15 3.34 3.42 3.01 2.42 1.99 1.96 1.74 1.69 1.75 1.81 1.82
1.99 2.50 2.80 3.02 3.46 3.96 4.42 4.75 4.94 4.82 4.43 4.07 3.91 3.81 3.77 3.37 3.08 3.06 3.20 3.02 3.02 3.07 3.13 3.36 3.30 3.33 3.45 3.41 3.40 3.56 3.34 2.97 3.26 3.63 3.69 2.99 2.56 2.09 1.59 1.70 1.82 2.00 2.09
2.27 2.57 2.76 2.89 3.14 3.54 3.84 3.94 4.13 4.09 3.93 3.97 4.00 3.96 3.98 3.57 3.50 3.51 3.51 3.29 3.29 3.31 3.32 3.30 3.21 3.21 3.02 3.11 3.20 3.23 3.25 3.18 3.14 3.47 3.80 3.35 2.85 2.46 1.86 1.74 1.77 2.03 2.36
1.96 2.17 2.45 2.72 2.89 3.13 3.45 3.66 3.71 3.67 3.59 3.71 3.78 3.68 3.51 3.39 3.55 3.83 3.76 3.49 3.28 3.15 2.97 2.92 3.08 3.09 2.88 2.93 2.59 2.76 2.96 2.96 2.82 3.11 3.17 3.18 3.18 3.08 2.40 1.95 1.78 1.95 2.17
1.70 1.81 2.02 2.34 2.47 2.80 3.07 3.27 3.52 3.62 3.56 3.64 3.62 3.65 3.49 3.48 3.55 3.56 3.62 3.41 3.23 2.92 2.58 2.61 2.81 2.76 2.66 2.57 2.48 2.69 2.53 2.46 2.53 2.76 2.95 3.02 3.10 2.99 2.81 2.38 2.33 2.28 2.14
1.48 1.71 1.88 2.17 2.35 2.47 2.59 2.69 2.90 3.18 3.36 3.41 3.37 3.43 3.37 3.35 3.30 3.27 3.16 2.96 2.81 2.62 2.33 2.22 2.39 2.49 2.52 2.48 2.46 2.55 2.43 2.44 2.57 2.58 2.65 2.89 2.89 2.85 3.01 2.59 2.44 2.45 2.20
1.21 1.45 1.61 1.78 1.99 2.11 2.21 2.34 2.60 2.96 3.06 3.02 2.98 3.09 3.15 3.16 3.09 3.08 2.92 2.70 2.48 2.25 2.20 2.20 2.30 2.32 2.38 2.25 2.31 2.36 2.40 2.57 2.63 2.54 2.48 2.60 2.65 2.76 3.02 2.98 2.67 2.55 2.35
0.97 1.12 1.39 1.70 1.88 1.87 1.94 2.08 2.37 2.63 2.67 2.60 2.74 3.00 3.07 3.11 3.04 3.05 2.73 2.47 2.26 2.21 2.31 2.27 2.12 2.07 2.17 2.05 2.32 2.25 2.30 2.52 2.59 2.36 2.61 2.62 2.62 2.91 3.15 3.25 3.34 3.00 2.68
0.98 1.06 1.16 1.38 1.52 1.58 1.64 1.79 2.20 2.47 2.56 2.64 2.76 2.88 2.98 2.96 2.92 2.81 2.52 2.27 2.29 2.25 2.38 2.32 2.21 2.10 2.18 2.29 2.56 2.50 2.44 2.65 2.64 2.64 2.83 2.76 2.71 2.86 2.99 3.19 3.45 3.54 3.15
0.83 0.91 0.96 1.08 1.18 1.36 1.62 1.79 1.93 2.23 2.34 2.43 2.58 2.61 2.84 2.76 2.60 2.55 2.32 2.09 2.01 2.08 2.26 2.39 2.31 2.22 2.24 2.41 2.61 2.61 2.74 2.91 2.93 2.99 3.06 3.01 2.83 2.91 2.96 3.01 3.29 3.62 3.53
0.75 0.80 0.93 1.07 1.16 1.29 1.50 1.61 1.65 1.83 1.98 2.10 2.31 2.32 2.32 2.39 2.46 2.30 2.04 1.95 1.96 2.03 2.10 2.29 2.35 2.30 2.33 2.44 2.51 2.46 2.77 2.91 2.94 2.92 2.91 2.88 3.01 3.00 2.90 3.00 3.18 3.46 3.55
0.81 0.86 1.03 1.16 1.23 1.36 1.39 1.42 1.50 1.70 1.87 2.03 2.22 2.28 2.26 2.30 2.33 2.19 2.01 1.98 2.02 2.08 2.08 2.19 2.23 2.13 2.15 2.35 2.38 2.42 2.70 2.86 2.75 2.74 2.75 2.54 2.60 2.68 2.56 2.70 2.78 2.92 3.19
0.86 0.93 1.06 1.11 1.10 1.20 1.33 1.35 1.36 1.55 1.76 1.94 2.22 2.39 2.43 2.39 2.31 2.11 1.89 1.82 1.82 1.91 1.95 1.98 2.02 2.07 2.21 2.30 2.29 2.31 2.32 2.35 2.42 2.64 2.75 2.54 2.53 2.43 2.43 2.46 2.44 2.53 2.65
0.83 0.95 0.98 1.11 1.11 1.13 1.24 1.23 1.28 1.37 1.62 1.84 2.05 2.19 2.08 2.03 2.01 1.90 1.75 1.69 1.70 1.75 1.81 1.89 1.99 2.06 2.14 2.18 2.25 2.31 2.23 2.21 2.26 2.40 2.47 2.45 2.41 2.34 2.44 2.34 2.33 2.42 2.59
0.73 0.81 0.83 0.90 0.96 1.10 1.22 1.14 1.15 1.17 1.30 1.49 1.60 1.74 1.73 1.72 1.71 1.78 1.81 1.81 1.86 1.81 1.89 1.96 1.97 1.96 1.95 1.88 1.94 2.02 2.03 2.16 2.11 2.02 2.04 2.06 2.11 2.09 2.12 1.98 2.15 2.40 2.54
0.54 0.52 0.70 0.81 0.78 0.82 0.93 0.87 0.91 1.04 1.18 1.27 1.37 1.60 1.73 1.75 1.74 1.81 1.94 1.96 1.91 1.91 1.94 1.89 1.94 1.94 1.67 1.85 1.89 1.89 1.99 2.07 2.07 1.99 1.88 1.79 1.78 1.70 1.70 1.65 1.75 2.04 2.27
0.52 0.47 0.56 0.73 0.74 0.75 0.76 0.87 0.98 1.12 1.22 1.37 1.51 1.70 1.81 1.89 1.90 1.87 2.00 1.96 1.96 2.03 1.99 1.91 1.92 1.94 1.99 2.05 1.88 1.75 1.72 1.83 1.88 1.85 1.82 1.60 1.51 1.68 1.65 1.68 1.66 1.69 1.85
0.53 0.52 0.52 0.55 0.61 0.68 0.75 0.91 1.20 1.45 1.51 1.65 1.83 1.93 2.05 2.00 1.97 1.97 2.00 2.09 2.18 2.23 2.20 2.13 2.05 2.03 2.00 2.01 1.82 1.83 1.74 1.75 1.75 1.76 1.80 1.79 1.70 1.76 1.88 1.84 1.76 1.64 1.59
0.55 0.58 0.63 0.66 0.73 0.79 0.83 1.02 1.25 1.56 1.75 1.80 1.90 2.05 2.14 2.19 2.19 2.19 2.17 2.26 2.38 2.34 2.26 2.21 2.22 2.16 2.18 2.26 2.07 2.10 1.93 1.91 1.91 1.95 1.95 1.92 1.82 1.96 1.93 1.81 1.78 1.72 1.70
0.67 0.68 0.72 0.84 1.03 1.10 1.12 1.24 1.36 1.51 1.71 1.78 1.89 2.07 2.29 2.35 2.36 2.50 2.60 2.55 2.50 2.36 2.37 2.36 2.34 2.34 2.39 2.64 2.45 2.28 2.10 2.09 2.09 2.18 2.16 2.20 2.05 2.05 1.98 1.81 1.81 1.82 1.84
0.78 0.77 0.80 0.96 1.21 1.34 1.39 1.49 1.63 1.72 1.73 1.81 1.96 2.14 2.31 2.40 2.48 2.65 2.73 2.69 2.63 2.60 2.57 2.50 2.55 2.54 2.53 2.70 2.47 2.27 2.12 2.17 2.31 2.30 2.21 2.26 2.30 2.09 2.10 2.04 1.93 1.91 1.92
0.90 0.95 0.99 1.15 1.38 1.55 1.53 1.60 1.69 1.72 1.75 1.76 1.90 2.03 2.18 2.20 2.30 2.57 2.66 2.75 2.76 2.72 2.63 2.58 2.45 2.48 2.46 2.39 2.26 2.17 2.14 2.22 2.32 2.38 2.31 2.28 2.29 2.07 2.00 1.86 1.82 1.86 1.76
0.95 1.02 1.09 1.27 1.54 1.72 1.76 1.83 1.73 1.80 1.82 1.84 1.97 2.11 2.19 2.25 2.35 2.47 2.52 2.61 2.67 2.62 2.50 2.52 2.47 2.42 2.41 2.38 2.16 1.95 1.93 1.98 2.00 2.13 2.28 2.22 2.12 1.92 1.72 1.67 1.64 1.55 1.43
0.89 0.96 1.09 1.19 1.30 1.52 1.74 1.85 1.88 1.92 1.91 1.94 2.00 2.09 2.20 2.20 2.28 2.40 2.52 2.63 2.73 2.80 2.67 2.54 2.43 2.41 2.37 2.24 2.06 1.88 1.80 1.91 2.03 2.12 2.18 2.07 1.96 1.77 1.61 1.51 1.41 1.35 1.42
0.91 0.96 1.07 1.12 1.17 1.26 1.41 1.49 1.62 1.75 1.82 1.88 1.95 1.98 2.02 2.12 2.24 2.30 2.41 2.39 2.45 2.48 2.46 2.39 2.36 2.35 2.27 2.12 2.04 1.85 1.74 1.86 2.04 2.11 2.11 1.97 1.91 1.80 1.70 1.62 1.56 1.54 1.55
1.00 1.02 1.06 1.06 1.08 1.15 1.31 1.43 1.54 1.69 1.84 1.93 1.96 1.90 1.86 1.94 2.02 2.11 2.13 2.14 2.03 2.02 1.96 1.97 1.95 1.88 1.79 1.69 1.57 1.55 1.57 1.66 1.84 1.85 1.90 1.99 1.95 1.88 1.80 1.70 1.62 1.58 1.55

GEFSMW_prec_meanprecacc_330.txt.gz
Total_Precipitation_Accumulation
2.06 2.49 2.79 3.33 3.93 4.35 4.76 4.92 4.97 4.88 4.71 4.37 4.06 3.83 3.58 3.36 3.11 2.93 2.83 2.75 2.69 2.90 3.38 3.17 3.43 3.36 3.37 3.42 3.46 3.60 3.50 3.19 3.38 3.46 3.04 2.44 2.00 1.97 1.75 1.70 1.75 1.82 1.82
2.00 2.53 2.84 3.05 3.48 3.98 4.44 4.75 4.95 4.83 4.45 4.10 3.94 3.85 3.80 3.39 3.11 3.10 3.23 3.06 3.06 3.12 3.17 3.40 3.33 3.37 3.51 3.46 3.44 3.60 3.39 3.02 3.30 3.66 3.72 3.01 2.58 2.10 1.59 1.71 1.83 2.01 2.10
2.28 2.58 2.79 2.92 3.16 3.55 3.85 3.95 4.14 4.11 3.95 4.00 4.02 3.99 4.00 3.59 3.53 3.54 3.54 3.33 3.33 3.34 3.34 3.33 3.24 3.26 3.07 3.16 3.25 3.28 3.31 3.24 3.18 3.49 3.83 3.38 2.88 2.48 1.87 1.74 1.78 2.05 2.38
1.96 2.18 2.47 2.74 2.91 3.14 3.46 3.67 3.73 3.68 3.61 3.73 3.80 3.71 3.53 3.42 3.59 3.86 3.79 3.51 3.30 3.17 2.98 2.93 3.10 3.12 2.92 2.98 2.64 2.81 3.02 3.01 2.87 3.15 3.20 3.22 3.22 3.12 2.43 1.97 1.80 1.96 2.18
1.70 1.83 2.03 2.35 2.49 2.81 3.09 3.28 3.54 3.63 3.57 3.65 3.64 3.68 3.51 3.51 3.57 3.59 3.64 3.44 3.26 2.94 2.60 2.63 2.84 2.80 2.71 2.62 2.53 2.73 2.58 2.50 2.57 2.80 2.99 3.07 3.16 3.04 2.86 2.41 2.35 2.30 2.15
1.49 1.71 1.89 2.18 2.36 2.49 2.62 2.72 2.93 3.19 3.37 3.42 3.39 3.44 3.39 3.38 3.34 3.32 3.21 3.02 2.87 2.66 2.36 2.24 2.42 2.53 2.57 2.53 2.50 2.59 2.47 2.48 2.62 2.62 2.69 2.94 2.94 2.90 3.06 2.63 2.47 2.48 2.22
1.22 1.46 1.62 1.80 2.01 2.13 2.24 2.37 2.63 2.98 3.08 3.04 3.00 3.11 3.18 3.20 3.14 3.12 2.97 2.76 2.54 2.31 2.24 2.24 2.34 2.36 2.42 2.31 2.35 2.39 2.43 2.61 2.68 2.59 2.53 2.65 2.69 2.81 3.07 3.02 2.70 2.58 2.37
0.98 1.12 1.40 1.72 1.89 1.89 1.95 2.10 2.39 2.65 2.69 2.62 2.76 3.02 3.09 3.14 3.06 3.09 2.77 2.52 2.31 2.26 2.34 2.31 2.17 2.12 2.22 2.10 2.37 2.29 2.35 2.58 2.64 2.40 2.66 2.67 2.66 2.95 3.19 3.30 3.39 3.05 2.72
0.99 1.06 1.17 1.39 1.53 1.59 1.65 1.80 2.22 2.49 2.58 2.65 2.77 2.90 3.00 2.98 2.95 2.86 2.56 2.31 2.32 2.28 2.41 2.35 2.24 2.14 2.23 2.34 2.62 2.56 2.50 2.71 2.70 2.70 2.90 2.82 2.76 2.89 3.02 3.23 3.49 3.58 3.18
0.84 0.91 0.96 1.08 1.19 1.37 1.63 1.80 1.94 2.25 2.36 2.44 2.60 2.63 2.88 2.81 2.65 2.59 2.35 2.11 2.03 2.10 2.28 2.40 2.33 2.24 2.28 2.47 2.67 2.65 2.80 2.97 2.99 3.05 3.13 3.07 2.88 2.95 2.99 3.04 3.30 3.64 3.56
0.75 0.80 0.94 1.07 1.17 1.31 1.51 1.62 1.66 1.85 2.00 2.13 2.34 2.36 2.39 2.47 2.52 2.33 2.06 1.96 1.98 2.05 2.12 2.30 2.36 2.31 2.35 2.47 2.55 2.51 2.82 2.96 2.99 2.96 2.95 2.92 3.06 3.04 2.92 3.02 3.20 3.48 3.57
0.81 0.86 1.03 1.16 1.23 1.37 1.41 1.44 1.52 1.72 1.91 2.08 2.29 2.36 2.34 2.37 2.38 2.22 2.02 1.98 2.03 2.09 2.09 2.20 2.24 2.14 2.16 2.37 2.41 2.45 2.73 2.89 2.78 2.78 2.78 2.57 2.64 2.72 2.59 2.73 2.81 2.95 3.21
0.86 0.94 1.06 1.11 1.12 1.22 1.35 1.38 1.39 1.59 1.81 2.01 2.31 2.47 2.49 2.43 2.33 2.12 1.90 1.83 1.83 1.92 1.96 1.99 2.02 2.07 2.22 2.32 2.31 2.33 2.34 2.37 2.44 2.66 2.78 2.57 2.55 2.47 2.47 2.50 2.48 2.56 2.67
0.84 0.95 0.99 1.13 1.12 1.15 1.29 1.30 1.37 1.46 1.70 1.92 2.11 2.23 2.10 2.04 2.02 1.91 1.76 1.70 1.71 1.75 1.82 1.90 2.00 2.07 2.14 2.19 2.26 2.33 2.26 2.22 2.27 2.42 2.49 2.46 2.43 2.36 2.46 2.38 2.37 2.45 2.61
0.74 0.82 0.84 0.91 0.97 1.11 1.24 1.16 1.20 1.25 1.37 1.54 1.64 1.77 1.75 1.73 1.72 1.78 1.82 1.82 1.86 1.82 1.89 1.97 1.97 1.97 1.96 1.89 1.95 2.04 2.06 2.18 2.13 2.04 2.05 2.07 2.12 2.11 2.15 2.00 2.18 2.43 2.58
0.55 0.53 0.71 0.82 0.79 0.83 0.94 0.90 0.94 1.07 1.22 1.30 1.40 1.63 1.75 1.76 1.75 1.82 1.95 1.96 1.92 1.92 1.95 1.90 1.95 1.95 1.68 1.86 1.91 1.92 2.01 2.08 2.09 2.00 1.89 1.79 1.79 1.73 1.73 1.69 1.77 2.07 2.31
0.54 0.50 0.58 0.74 0.75 0.76 0.78 0.89 1.01 1.14 1.25 1.39 1.54 1.71 1.82 1.90 1.91 1.88 2.00 1.96 1.97 2.04 2.00 1.92 1.92 1.95 2.01 2.07 1.91 1.78 1.75 1.84 1.90 1.87 1.84 1.61 1.53 1.71 1.68 1.73 1.70 1.72 1.88
0.54 0.54 0.55 0.57 0.62 0.69 0.76 0.93 1.22 1.47 1.52 1.67 1.85 1.94 2.06 2.01 1.98 1.98 2.02 2.10 2.20 2.24 2.21 2.15 2.06 2.04 2.03 2.04 1.84 1.85 1.76 1.77 1.76 1.78 1.81 1.80 1.72 1.79 1.91 1.88 1.80 1.68 1.64
0.56 0.59 0.66 0.68 0.74 0.79 0.84 1.02 1.26 1.57 1.76 1.81 1.91 2.05 2.15 2.19 2.20 2.21 2.18 2.27 2.40 2.36 2.29 2.23 2.24 2.18 2.20 2.28 2.08 2.11 1.95 1.93 1.93 1.96 1.96 1.94 1.84 1.99 1.95 1.84 1.81 1.76 1.75
0.68 0.70 0.73 0.85 1.04 1.11 1.13 1.24 1.37 1.52 1.71 1.78 1.89 2.07 2.30 2.35 2.37 2.52 2.61 2.57 2.52 2.38 2.40 2.39 2.36 2.36 2.40 2.65 2.46 2.30 2.12 2.11 2.10 2.20 2.18 2.22 2.07 2.07 2.00 1.83 1.84 1.86 1.88
0.80 0.78 0.81 0.97 1.22 1.35 1.39 1.49 1.63 1.72 1.73 1.82 1.96 2.14 2.32 2.41 2.49 2.66 2.74 2.72 2.66 2.63 2.59 2.53 2.57 2.55 2.54 2.71 2.49 2.28 2.14 2.19 2.33 2.32 2.23 2.29 2.33 2.12 2.12 2.07 1.97 1.95 1.96
0.91 0.95 0.99 1.15 1.39 1.56 1.53 1.61 1.70 1.72 1.76 1.77 1.91 2.04 2.19 2.21 2.31 2.59 2.68 2.78 2.80 2.75 2.66 2.61 2.47 2.49 2.47 2.40 2.27 2.18 2.15 2.24 2.36 2.42 2.35 2.31 2.32 2.09 2.02 1.89 1.85 1.89 1.78
0.96 1.03 1.09 1.27 1.54 1.73 1.76 1.84 1.74 1.80 1.84 1.86 1.99 2.13 2.21 2.26 2.36 2.48 2.53 2.63 2.70 2.64 2.52 2.54 2.49 2.43 2.42 2.40 2.17 1.96 1.93 1.99 2.02 2.16 2.32 2.24 2.14 1.93 1.73 1.69 1.66 1.58 1.46
0.91 0.97 1.10 1.20 1.32 1.53 1.74 1.86 1.88 1.93 1.93 1.96 2.02 2.11 2.22 2.22 2.30 2.43 2.53 2.64 2.74 2.81 2.69 2.55 2.44 2.43 2.39 2.26 2.08 1.89 1.81 1.92 2.04 2.13 2.20 2.08 1.97 1.78 1.62 1.53 1.43 1.38 1.45
0.93 0.98 1.08 1.13 1.19 1.28 1.42 1.50 1.63 1.76 1.82 1.90 1.97 2.00 2.04 2.14 2.26 2.32 2.43 2.41 2.49 2.52 2.50 2.42 2.38 2.37 2.29 2.14 2.06 1.87 1.75 1.88 2.06 2.12 2.12 1.98 1.92 1.81 1.71 1.63 1.57 1.56 1.57
1.02 1.04 1.08 1.08 1.10 1.17 1.32 1.44 1.54 1.69 1.85 1.95 1.98 1.93 1.88 1.96 2.04 2.13 2.15 2.17 2.06 2.05 1.99 1.99 1.97 1.90 1.81 1.70 1.58 1.56 1.58 1.67 1.85 1.86 1.91 2.00 1.96 1.89 1.81 1.71 1.63 1.59 1.57

GEFSMW_prec_meanprecacc_336.txt.gz
Total_Precipitation_Accumulation
2.06 2.49 2.80 3.33 3.93 4.37 4.78 4.96 5.01 4.91 4.74 4.40 4.09 3.86 3.61 3.40 3.14 2.95 2.85 2.77 2.70 2.91 3.40 3.19 3.47 3.40 3.42 3.47 3.51 3.67 3.58 3.27 3.46 3.56 3.12 2.49 2.04 2.00 1.76 1.70 1.76 1.83 1.84
2.01 2.53 2.85 3.05 3.48 4.01 4.47 4.80 4.98 4.86 4.47 4.13 3.98 3.88 3.83 3.43 3.15 3.13 3.26 3.07 3.08 3.13 3.18 3.42 3.37 3.41 3.58 3.54 3.51 3.68 3.45 3.08 3.35 3.74 3.81 3.08 2.63 2.13 1.60 1.72 1.84 2.03 2.12
2.30 2.59 2.80 2.92 3.17 3.57 3.87 3.98 4.17 4.13 3.97 4.02 4.05 4.02 4.04 3.63 3.56 3.57 3.57 3.36 3.35 3.36 3.36 3.35 3.27 3.29 3.13 3.24 3.33 3.36 3.37 3.30 3.23 3.54 3.90 3.47 2.97 2.53 1.89 1.77 1.80 2.07 2.40
1.98 2.20 2.49 2.76 2.93 3.16 3.47 3.69 3.75 3.70 3.63 3.75 3.83 3.74 3.56 3.45 3.61 3.89 3.82 3.54 3.32 3.19 3.01 2.96 3.14 3.16 2.96 3.03 2.68 2.86 3.07 3.07 2.92 3.21 3.27 3.30 3.30 3.19 2.48 2.02 1.83 1.99 2.21
1.71 1.84 2.05 2.38 2.50 2.83 3.11 3.31 3.56 3.65 3.59 3.67 3.67 3.71 3.55 3.54 3.60 3.61 3.67 3.47 3.28 2.97 2.63 2.66 2.89 2.85 2.75 2.66 2.56 2.76 2.61 2.53 2.61 2.86 3.06 3.14 3.23 3.09 2.90 2.45 2.39 2.35 2.21
1.49 1.72 1.90 2.20 2.37 2.50 2.64 2.74 2.96 3.22 3.40 3.44 3.41 3.46 3.42 3.41 3.38 3.37 3.27 3.07 2.91 2.71 2.40 2.29 2.47 2.58 2.62 2.57 2.53 2.61 2.51 2.55 2.69 2.70 2.78 3.02 3.01 2.98 3.12 2.67 2.51 2.53 2.26
1.22 1.46 1.63 1.80 2.02 2.13 2.25 2.39 2.67 3.01 3.10 3.06 3.02 3.13 3.21 3.23 3.18 3.16 3.02 2.81 2.58 2.36 2.30 2.29 2.39 2.41 2.47 2.35 2.39 2.44 2.48 2.67 2.76 2.69 2.63 2.74 2.76 2.87 3.13 3.07 2.75 2.62 2.41
0.98 1.13 1.40 1.72 1.90 1.89 1.96 2.12 2.42 2.68 2.71 2.64 2.79 3.05 3.12 3.16 3.09 3.13 2.81 2.56 2.37 2.31 2.39 2.36 2.21 2.16 2.26 2.14 2.42 2.34 2.41 2.65 2.73 2.48 2.74 2.75 2.74 3.02 3.26 3.36 3.45 3.11 2.79
0.99 1.07 1.17 1.40 1.53 1.60 1.67 1.82 2.24 2.51 2.60 2.68 2.80 2.92 3.03 3.00 2.97 2.89 2.62 2.36 2.37 2.32 2.44 2.38 2.27 2.17 2.27 2.38 2.66 2.61 2.55 2.77 2.77 2.77 2.97 2.90 2.83 2.97 3.09 3.31 3.57 3.67 3.27
0.84 0.92 0.97 1.09 1.20 1.38 1.65 1.84 1.98 2.28 2.39 2.48 2.63 2.66 2.90 2.82 2.67 2.63 2.41 2.16 2.06 2.12 2.30 2.42 2.35 2.27 2.32 2.51 2.71 2.70 2.84 3.01 3.04 3.10 3.19 3.14 2.94 3.03 3.08 3.12 3.37 3.71 3.64
0.75 0.81 0.94 1.08 1.18 1.32 1.54 1.67 1.70 1.89 2.05 2.18 2.39 2.39 2.41 2.48 2.55 2.38 2.11 2.01 2.01 2.07 2.14 2.32 2.39 2.34 2.39 2.52 2.59 2.55 2.86 3.00 3.03 3.02 3.01 2.98 3.14 3.13 3.00 3.10 3.29 3.57 3.67
0.81 0.86 1.03 1.16 1.24 1.38 1.43 1.48 1.55 1.76 1.94 2.12 2.33 2.39 2.37 2.41 2.45 2.30 2.10 2.04 2.06 2.11 2.11 2.23 2.28 2.18 2.20 2.42 2.44 2.48 2.76 2.93 2.82 2.83 2.84 2.63 2.71 2.81 2.67 2.81 2.89 3.04 3.30
0.87 0.94 1.06 1.11 1.12 1.23 1.37 1.41 1.43 1.64 1.86 2.07 2.36 2.52 2.56 2.52 2.43 2.23 1.97 1.87 1.85 1.94 1.98 2.02 2.05 2.11 2.26 2.37 2.37 2.39 2.38 2.40 2.47 2.70 2.83 2.61 2.60 2.53 2.55 2.58 2.56 2.63 2.73
0.87 0.97 1.00 1.13 1.12 1.16 1.30 1.33 1.40 1.50 1.76 1.99 2.19 2.32 2.21 2.14 2.11 1.98 1.81 1.73 1.73 1.77 1.84 1.92 2.02 2.10 2.17 2.23 2.32 2.39 2.30 2.26 2.30 2.44 2.52 2.50 2.46 2.40 2.51 2.44 2.45 2.52 2.68
0.78 0.83 0.84 0.92 0.98 1.11 1.24 1.17 1.22 1.29 1.43 1.63 1.73 1.87 1.84 1.79 1.77 1.82 1.85 1.84 1.88 1.83 1.90 1.98 2.00 1.99 1.98 1.91 1.98 2.08 2.09 2.22 2.16 2.07 2.08 2.10 2.14 2.13 2.18 2.04 2.23 2.49 2.65
0.58 0.54 0.71 0.82 0.79 0.84 0.95 0.91 0.96 1.11 1.26 1.34 1.45 1.68 1.79 1.80 1.79 1.85 1.97 1.98 1.94 1.93 1.97 1.92 1.97 1.97 1.70 1.88 1.94 1.94 2.03 2.11 2.12 2.04 1.92 1.81 1.81 1.75 1.76 1.72 1.82 2.13 2.37
0.56 0.50 0.58 0.75 0.75 0.77 0.79 0.91 1.03 1.17 1.27 1.41 1.56 1.75 1.86 1.93 1.94 1.91 2.04 1.99 1.99 2.07 2.03 1.95 1.96 1.98 2.04 2.10 1.93 1.79 1.76 1.86 1.92 1.89 1.86 1.63 1.54 1.72 1.70 1.75 1.73 1.76 1.93
0.55 0.55 0.55 0.57 0.63 0.70 0.78 0.94 1.23 1.48 1.53 1.68 1.87 1.97 2.09 2.04 2.01 2.02 2.06 2.15 2.23 2.27 2.25 2.18 2.10 2.08 2.06 2.06 1.86 1.85 1.77 1.77 1.78 1.79 1.83 1.82 1.73 1.79 1.93 1.90 1.82 1.71 1.67
0.56 0.59 0.66 0.69 0.75 0.81 0.85 1.03 1.27 1.58 1.77 1.82 1.92 2.07 2.18 2.22 2.23 2.24 2.23 2.32 2.45 2.40 2.32 2.25 2.27 2.22 2.22 2.29 2.09 2.12 1.96 1.94 1.94 1.97 1.97 1.95 1.85 2.00 1.96 1.85 1.83 1.79 1.78
0.68 0.70 0.74 0.86 1.05 1.12 1.13 1.25 1.37 1.52 1.72 1.79 1.90 2.08 2.32 2.38 2.40 2.55 2.66 2.62 2.58 2.44 2.44 2.43 2.40 2.39 2.42 2.66 2.48 2.31 2.14 2.13 2.12 2.22 2.20 2.23 2.08 2.08 2.01 1.85 1.86 1.88 1.90
0.81 0.79 0.82 0.98 1.23 1.36 1.40 1.50 1.64 1.73 1.74 1.82 1.97 2.16 2.34 2.44 2.52 2.71 2.80 2.78 2.72 2.70 2.65 2.58 2.60 2.58 2.57 2.75 2.51 2.30 2.16 2.21 2.35 2.35 2.26 2.32 2.34 2.13 2.14 2.08 1.98 1.96 1.98
0.92 0.96 1.00 1.16 1.39 1.56 1.54 1.62 1.72 1.74 1.77 1.78 1.93 2.06 2.21 2.23 2.32 2.62 2.72 2.83 2.88 2.83 2.73 2.66 2.52 2.53 2.51 2.43 2.30 2.19 2.15 2.25 2.38 2.45 2.39 2.35 2.35 2.12 2.04 1.90 1.86 1.91 1.81
0.97 1.04 1.10 1.29 1.56 1.74 1.78 1.86 1.77 1.84 1.87 1.89 2.02 2.16 2.24 2.28 2.38 2.51 2.56 2.66 2.75 2.71 2.57 2.58 2.52 2.45 2.44 2.43 2.19 1.97 1.94 2.00 2.04 2.19 2.35 2.28 2.17 1.98 1.79 1.74 1.70 1.60 1.48
0.93 0.99 1.12 1.23 1.34 1.56 1.77 1.89 1.92 1.96 1.96 1.99 2.06 2.15 2.26 2.24 2.33 2.46 2.57 2.68 2.77 2.85 2.73 2.58 2.46 2.44 2.40 2.29 2.11 1.92 1.84 1.95 2.06 2.16 2.23 2.11 2.00 1.81 1.66 1.58 1.49 1.43 1.49
0.96 1.01 1.12 1.17 1.22 1.30 1.45 1.53 1.67 1.79 1.85 1.93 2.01 2.04 2.08 2.17 2.29 2.36 2.47 2.45 2.52 2.55 2.52 2.43 2.39 2.38 2.30 2.16 2.08 1.89 1.78 1.90 2.08 2.15 2.15 2.01 1.95 1.84 1.73 1.66 1.60 1.58 1.61
1.07 1.09 1.14 1.13 1.14 1.21 1.37 1.49 1.59 1.73 1.89 1.99 2.03 1.98 1.92 2.00 2.07 2.16 2.18 2.20 2.09 2.07 2.02 2.01 1.98 1.91 1.82 1.72 1.60 1.58 1.59 1.69 1.86 1.87 1.93 2.03 2.00 1.93 1.84 1.74 1.66 1.61 1.58

GEFSMW_prec_meanprecacc_342.txt.gz
Total_Precipitation_Accumulation
2.08 2.52 2.82 3.35 3.94 4.37 4.79 4.98 5.05 4.95 4.79 4.43 4.13 3.88 3.63 3.41 3.16 2.96 2.86 2.79 2.72 2.93 3.42 3.20 3.48 3.41 3.43 3.49 3.54 3.69 3.61 3.32 3.52 3.63 3.19 2.57 2.11 2.07 1.84 1.79 1.84 1.90 1.91
2.02 2.55 2.86 3.06 3.49 4.01 4.48 4.81 4.99 4.87 4.49 4.15 4.00 3.90 3.85 3.46 3.18 3.15 3.30 3.13 3.13 3.16 3.19 3.43 3.38 3.43 3.60 3.57 3.54 3.70 3.47 3.11 3.40 3.78 3.85 3.12 2.68 2.18 1.66 1.78 1.91 2.09 2.19
2.31 2.61 2.81 2.93 3.18 3.59 3.89 4.00 4.18 4.15 4.00 4.04 4.07 4.03 4.06 3.66 3.59 3.60 3.62 3.40 3.39 3.40 3.40 3.38 3.29 3.31 3.15 3.26 3.35 3.37 3.39 3.31 3.25 3.56 3.92 3.50 3.01 2.57 1.93 1.81 1.86 2.13 2.44
1.99 2.20 2.49 2.77 2.94 3.17 3.49 3.71 3.77 3.72 3.65 3.77 3.84 3.75 3.57 3.46 3.63 3.90 3.83 3.56 3.35 3.23 3.05 3.00 3.17 3.19 2.98 3.05 2.70 2.87 3.08 3.08 2.94 3.23 3.29 3.32 3.32 3.21 2.51 2.05 1.88 2.03 2.23
1.73 1.84 2.05 2.38 2.51 2.84 3.11 3.32 3.57 3.66 3.61 3.68 3.68 3.72 3.56 3.55 3.61 3.62 3.67 3.48 3.30 2.99 2.66 2.69 2.90 2.87 2.77 2.68 2.58 2.78 2.62 2.54 2.62 2.88 3.09 3.18 3.27 3.13 2.94 2.49 2.43 2.38 2.23
1.51 1.73 1.91 2.21 2.37 2.50 2.64 2.75 2.96 3.23 3.41 3.45 3.42 3.48 3.43 3.42 3.39 3.38 3.28 3.08 2.93 2.74 2.42 2.30 2.48 2.60 2.64 2.59 2.55 2.64 2.52 2.56 2.70 2.72 2.79 3.04 3.06 3.03 3.17 2.71 2.54 2.56 2.29
1.24 1.47 1.64 1.81 2.03 2.14 2.26 2.41 2.70 3.04 3.11 3.07 3.03 3.14 3.22 3.24 3.18 3.17 3.03 2.82 2.59 2.38 2.31 2.30 2.41 2.44 2.49 2.38 2.43 2.48 2.50 2.69 2.77 2.71 2.65 2.76 2.79 2.90 3.17 3.12 2.78 2.64 2.43
1.00 1.14 1.41 1.73 1.90 1.90 1.97 2.13 2.44 2.71 2.75 2.67 2.81 3.07 3.15 3.18 3.10 3.14 2.83 2.57 2.37 2.32 2.41 2.39 2.24 2.19 2.29 2.17 2.45 2.38 2.44 2.68 2.76 2.50 2.77 2.78 2.76 3.05 3.28 3.39 3.48 3.14 2.82
1.01 1.08 1.18 1.40 1.54 1.61 1.68 1.83 2.26 2.55 2.64 2.71 2.83 2.96 3.07 3.03 2.99 2.91 2.63 2.37 2.39 2.33 2.46 2.41 2.30 2.20 2.29 2.41 2.69 2.64 2.58 2.80 2.79 2.81 3.01 2.94 2.85 3.00 3.13 3.34 3.61 3.72 3.31
0.86 0.93 0.98 1.10 1.21 1.39 1.66 1.85 2.02 2.35 2.45 2.55 2.71 2.74 2.97 2.86 2.70 2.66 2.43 2.18 2.10 2.17 2.35 2.46 2.37 2.29 2.34 2.53 2.73 2.72 2.86 3.03 3.07 3.15 3.23 3.17 2.98 3.07 3.11 3.15 3.41 3.76 3.69
0.77 0.82 0.95 1.08 1.18 1.33 1.55 1.69 1.73 1.96 2.16 2.30 2.48 2.47 2.46 2.53 2.60 2.43 2.17 2.08 2.10 2.17 2.21 2.35 2.40 2.35 2.41 2.54 2.61 2.57 2.89 3.03 3.06 3.05 3.05 3.03 3.18 3.15 3.02 3.13 3.33 3.62 3.72
0.83 0.88 1.04 1.17 1.25 1.39 1.44 1.49 1.58 1.79 2.00 2.19 2.40 2.46 2.44 2.49 2.53 2.38 2.19 2.16 2.20 2.20 2.16 2.25 2.29 2.19 2.21 2.44 2.46 2.51 2.81 2.98 2.87 2.89 2.91 2.67 2.74 2.83 2.69 2.83 2.92 3.08 3.34
0.91 0.97 1.08 1.12 1.12 1.23 1.38 1.42 1.44 1.65 1.89 2.11 2.41 2.58 2.62 2.58 2.50 2.32 2.09 2.00 1.95 1.98 1.99 2.03 2.06 2.12 2.28 2.40 2.40 2.43 2.43 2.46 2.54 2.76 2.87 2.66 2.63 2.55 2.56 2.60 2.59 2.66 2.76
0.93 1.00 1.02 1.14 1.14 1.16 1.31 1.34 1.41 1.52 1.79 2.03 2.24 2.37 2.26 2.19 2.19 2.08 1.89 1.79 1.77 1.79 1.85 1.94 2.04 2.12 2.20 2.27 2.37 2.44 2.34 2.31 2.36 2.49 2.56 2.55 2.51 2.43 2.53 2.45 2.47 2.54 2.71
0.84 0.86 0.87 0.94 0.99 1.12 1.25 1.18 1.23 1.31 1.48 1.67 1.77 1.91 1.89 1.85 1.82 1.87 1.89 1.87 1.90 1.85 1.93 2.01 2.03 2.03 2.02 1.95 2.01 2.11 2.11 2.24 2.18 2.09 2.10 2.13 2.18 2.18 2.22 2.07 2.26 2.53 2.69
0.59 0.56 0.74 0.84 0.80 0.84 0.95 0.92 0.97 1.13 1.29 1.38 1.48 1.72 1.83 1.83 1.82 1.88 2.00 2.01 1.97 1.95 1.99 1.95 1.99 1.99 1.72 1.91 1.96 1.96 2.05 2.12 2.13 2.05 1.93 1.83 1.82 1.77 1.80 1.77 1.87 2.18 2.42
0.59 0.53 0.61 0.76 0.76 0.77 0.80 0.91 1.04 1.18 1.29 1.43 1.58 1.78 1.89 1.96 1.98 1.95 2.07 2.02 2.02 2.09 2.05 1.98 1.98 2.01 2.07 2.12 1.95 1.81 1.78 1.87 1.93 1.90 1.87 1.64 1.55 1.73 1.71 1.77 1.75 1.78 1.95
0.65 0.60 0.58 0.59 0.64 0.71 0.79 0.95 1.24 1.49 1.55 1.69 1.89 2.00 2.13 2.08 2.06 2.07 2.10 2.18 2.27 2.31 2.29 2.22 2.14 2.11 2.09 2.08 1.87 1.87 1.78 1.78 1.78 1.80 1.84 1.82 1.74 1.80 1.93 1.90 1.82 1.71 1.68
0.60 0.65 0.69 0.71 0.76 0.82 0.86 1.04 1.27 1.59 1.79 1.84 1.94 2.10 2.20 2.24 2.25 2.26 2.25 2.35 2.49 2.45 2.37 2.30 2.31 2.25 2.24 2.32 2.11 2.13 1.97 1.95 1.95 1.98 1.98 1.96 1.86 2.01 1.97 1.86 1.84 1.79 1.78
0.71 0.72 0.75 0.87 1.06 1.13 1.14 1.26 1.40 1.54 1.74 1.81 1.92 2.09 2.33 2.39 2.42 2.57 2.68 2.65 2.62 2.49 2.50 2.48 2.43 2.42 2.45 2.69 2.50 2.34 2.15 2.14 2.13 2.23 2.22 2.26 2.09 2.09 2.03 1.86 1.87 1.89 1.91
0.82 0.80 0.83 0.99 1.24 1.37 1.41 1.51 1.67 1.75 1.76 1.84 1.99 2.18 2.35 2.45 2.53 2.73 2.82 2.81 2.75 2.75 2.70 2.62 2.64 2.62 2.60 2.78 2.53 2.33 2.17 2.23 2.37 2.37 2.29 2.34 2.36 2.15 2.15 2.10 2.00 1.99 2.01
0.94 0.97 1.02 1.18 1.41 1.57 1.56 1.64 1.74 1.76 1.80 1.81 1.95 2.09 2.23 2.25 2.34 2.63 2.73 2.85 2.90 2.85 2.77 2.72 2.56 2.56 2.54 2.45 2.31 2.21 2.18 2.28 2.41 2.47 2.42 2.38 2.37 2.14 2.06 1.92 1.89 1.94 1.84
0.99 1.06 1.12 1.31 1.58 1.76 1.79 1.87 1.79 1.87 1.90 1.92 2.05 2.19 2.26 2.30 2.40 2.52 2.57 2.68 2.76 2.72 2.60 2.61 2.55 2.48 2.47 2.45 2.21 2.00 1.97 2.03 2.06 2.21 2.38 2.30 2.19 1.99 1.80 1.75 1.72 1.64 1.52
0.97 1.05 1.17 1.26 1.37 1.58 1.79 1.91 1.95 1.99 1.99 2.02 2.08 2.17 2.28 2.26 2.35 2.48 2.58 2.70 2.78 2.86 2.76 2.63 2.50 2.46 2.43 2.31 2.13 1.94 1.85 1.97 2.07 2.17 2.25 2.13 2.01 1.82 1.66 1.59 1.50 1.46 1.53
0.99 1.05 1.16 1.23 1.29 1.37 1.49 1.57 1.70 1.82 1.88 1.96 2.03 2.07 2.11 2.20 2.31 2.38 2.50 2.47 2.54 2.58 2.55 2.49 2.46 2.42 2.33 2.18 2.09 1.91 1.79 1.91 2.09 2.16 2.17 2.02 1.96 1.84 1.74 1.67 1.61 1.60 1.63
1.09 1.11 1.18 1.20 1.22 1.32 1.50 1.58 1.67 1.79 1.93 2.03 2.06 2.02 1.97 2.04 2.11 2.19 2.22 2.25 2.13 2.12 2.05 2.05 2.05 1.98 1.87 1.75 1.63 1.60 1.62 1.71 1.89 1.88 1.94 2.05 2.02 1.95 1.86 1.76 1.67 1.64 1.62

GEFSMW_prec_meanprecacc_348.txt.gz
Total_Precipitation_Accumulation
2.10 2.54 2.83 3.35 3.95 4.39 4.81 5.01 5.08 4.96 4.79 4.44 4.14 3.89 3.64 3.42 3.17 2.98 2.88 2.82 2.75 2.97 3.44 3.21 3.49 3.42 3.45 3.50 3.55 3.71 3.63 3.35 3.54 3.66 3.21 2.59 2.12 2.09 1.86 1.82 1.89 1.95 1.97
2.03 2.55 2.87 3.07 3.50 4.02 4.50 4.83 5.01 4.90 4.52 4.16 4.01 3.92 3.88 3.47 3.20 3.17 3.33 3.15 3.15 3.18 3.22 3.45 3.39 3.44 3.62 3.59 3.56 3.72 3.50 3.14 3.42 3.80 3.86 3.13 2.69 2.19 1.67 1.80 1.95 2.16 2.27
2.31 2.61 2.81 2.94 3.19 3.59 3.90 4.01 4.19 4.17 4.01 4.05 4.07 4.04 4.08 3.67 3.61 3.62 3.63 3.41 3.42 3.44 3.45 3.41 3.32 3.35 3.19 3.30 3.39 3.41 3.42 3.34 3.26 3.57 3.93 3.51 3.02 2.58 1.95 1.83 1.88 2.16 2.47
2.01 2.21 2.50 2.77 2.94 3.18 3.49 3.71 3.78 3.73 3.66 3.79 3.85 3.76 3.58 3.46 3.63 3.91 3.84 3.58 3.37 3.26 3.09 3.03 3.19 3.21 3.00 3.09 2.74 2.91 3.10 3.10 2.95 3.25 3.31 3.34 3.34 3.24 2.53 2.07 1.89 2.04 2.25
1.75 1.86 2.07 2.39 2.51 2.84 3.11 3.32 3.58 3.67 3.62 3.70 3.69 3.73 3.56 3.55 3.61 3.62 3.68 3.48 3.31 3.00 2.67 2.70 2.92 2.89 2.80 2.72 2.62 2.82 2.64 2.56 2.63 2.89 3.10 3.19 3.29 3.16 2.96 2.51 2.44 2.39 2.25
1.53 1.75 1.93 2.22 2.38 2.51 2.65 2.76 2.98 3.25 3.42 3.47 3.44 3.49 3.45 3.43 3.39 3.38 3.28 3.08 2.94 2.74 2.43 2.32 2.51 2.64 2.69 2.67 2.62 2.69 2.56 2.58 2.71 2.73 2.80 3.06 3.09 3.06 3.20 2.74 2.56 2.58 2.31
1.27 1.49 1.65 1.83 2.04 2.15 2.26 2.41 2.71 3.05 3.13 3.10 3.05 3.17 3.25 3.26 3.20 3.18 3.04 2.83 2.60 2.39 2.32 2.34 2.46 2.49 2.55 2.43 2.48 2.53 2.54 2.71 2.79 2.72 2.66 2.78 2.81 2.92 3.20 3.15 2.81 2.68 2.47
1.03 1.16 1.43 1.74 1.92 1.91 1.98 2.13 2.44 2.72 2.76 2.68 2.82 3.09 3.17 3.20 3.12 3.17 2.86 2.60 2.39 2.34 2.44 2.43 2.29 2.25 2.34 2.21 2.48 2.41 2.47 2.71 2.78 2.53 2.81 2.82 2.80 3.08 3.32 3.43 3.52 3.18 2.85
1.02 1.09 1.19 1.41 1.55 1.62 1.69 1.84 2.27 2.55 2.64 2.72 2.84 2.98 3.10 3.07 3.04 2.95 2.67 2.41 2.43 2.38 2.51 2.47 2.38 2.25 2.32 2.42 2.71 2.66 2.60 2.83 2.83 2.85 3.06 2.99 2.90 3.04 3.17 3.37 3.64 3.75 3.34
0.86 0.94 0.99 1.11 1.22 1.40 1.67 1.86 2.02 2.35 2.46 2.56 2.72 2.77 3.00 2.90 2.74 2.70 2.48 2.24 2.14 2.22 2.43 2.56 2.45 2.31 2.36 2.55 2.75 2.74 2.89 3.07 3.11 3.20 3.28 3.22 3.03 3.12 3.15 3.18 3.43 3.78 3.71
0.77 0.82 0.96 1.09 1.19 1.33 1.55 1.69 1.74 1.97 2.17 2.31 2.51 2.50 2.50 2.57 2.64 2.49 2.23 2.15 2.18 2.28 2.33 2.43 2.43 2.37 2.42 2.57 2.64 2.61 2.93 3.08 3.11 3.09 3.11 3.08 3.23 3.20 3.08 3.18 3.36 3.65 3.74
0.83 0.88 1.05 1.18 1.26 1.40 1.45 1.50 1.58 1.80 2.01 2.21 2.42 2.49 2.48 2.54 2.58 2.44 2.25 2.25 2.31 2.31 2.24 2.30 2.31 2.20 2.23 2.46 2.49 2.55 2.85 3.01 2.89 2.91 2.94 2.72 2.79 2.88 2.74 2.89 2.96 3.11 3.37
0.93 0.98 1.09 1.13 1.13 1.24 1.39 1.43 1.45 1.66 1.90 2.13 2.43 2.60 2.65 2.63 2.56 2.38 2.17 2.08 2.02 2.04 2.03 2.05 2.08 2.14 2.30 2.42 2.43 2.46 2.45 2.48 2.56 2.79 2.90 2.68 2.67 2.58 2.60 2.64 2.62 2.69 2.80
0.95 1.02 1.03 1.16 1.16 1.19 1.33 1.35 1.42 1.53 1.81 2.06 2.26 2.40 2.30 2.24 2.25 2.13 1.94 1.84 1.81 1.82 1.87 1.96 2.07 2.15 2.23 2.30 2.40 2.46 2.36 2.33 2.38 2.50 2.57 2.56 2.52 2.45 2.56 2.49 2.51 2.58 2.75
0.85 0.87 0.88 0.95 1.00 1.15 1.29 1.22 1.26 1.34 1.50 1.70 1.80 1.95 1.93 1.89 1.86 1.91 1.93 1.91 1.94 1.88 1.96 2.04 2.05 2.05 2.04 1.98 2.05 2.14 2.15 2.27 2.21 2.11 2.12 2.14 2.19 2.18 2.24 2.09 2.28 2.55 2.71
0.60 0.57 0.76 0.86 0.82 0.85 0.97 0.95 1.01 1.16 1.32 1.41 1.51 1.76 1.88 1.88 1.87 1.94 2.07 2.09 2.03 2.00 2.02 1.98 2.02 2.00 1.74 1.93 2.00 2.00 2.09 2.18 2.17 2.06 1.95 1.85 1.85 1.79 1.82 1.79 1.89 2.20 2.43
0.60 0.55 0.64 0.79 0.79 0.80 0.82 0.93 1.06 1.20 1.31 1.45 1.60 1.81 1.94 2.02 2.05 2.03 2.14 2.08 2.07 2.13 2.08 2.01 2.00 2.03 2.10 2.17 2.00 1.85 1.82 1.91 1.95 1.92 1.89 1.66 1.56 1.75 1.73 1.79 1.77 1.79 1.97
0.67 0.63 0.61 0.62 0.67 0.74 0.81 0.96 1.25 1.50 1.56 1.71 1.91 2.03 2.17 2.12 2.11 2.11 2.14 2.23 2.31 2.34 2.32 2.25 2.17 2.14 2.12 2.12 1.91 1.90 1.81 1.79 1.79 1.80 1.84 1.83 1.75 1.82 1.95 1.91 1.83 1.72 1.69
0.63 0.67 0.71 0.73 0.78 0.84 0.88 1.06 1.29 1.61 1.81 1.86 1.96 2.12 2.23 2.27 2.28 2.28 2.26 2.37 2.50 2.47 2.40 2.33 2.34 2.28 2.28 2.35 2.14 2.15 1.98 1.95 1.95 1.98 1.99 1.96 1.86 2.02 1.99 1.88 1.85 1.80 1.79
0.73 0.74 0.77 0.89 1.08 1.15 1.16 1.28 1.42 1.56 1.75 1.83 1.94 2.12 2.35 2.41 2.43 2.59 2.69 2.67 2.63 2.51 2.51 2.50 2.46 2.45 2.47 2.71 2.53 2.37 2.17 2.15 2.14 2.24 2.23 2.28 2.11 2.11 2.06 1.89 1.90 1.89 1.92
0.85 0.83 0.85 1.01 1.26 1.39 1.43 1.53 1.68 1.77 1.79 1.86 2.01 2.20 2.37 2.47 2.55 2.75 2.84 2.83 2.78 2.77 2.73 2.64 2.66 2.63 2.61 2.79 2.55 2.36 2.19 2.23 2.38 2.38 2.31 2.36 2.40 2.18 2.18 2.12 2.02 2.00 2.02
0.97 1.00 1.04 1.20 1.43 1.59 1.57 1.65 1.76 1.78 1.82 1.83 1.98 2.11 2.26 2.28 2.37 2.66 2.76 2.88 2.93 2.88 2.79 2.74 2.58 2.58 2.55 2.46 2.33 2.23 2.20 2.29 2.41 2.48 2.43 2.39 2.39 2.16 2.08 1.93 1.90 1.96 1.86
1.01 1.08 1.14 1.33 1.59 1.77 1.80 1.88 1.80 1.88 1.92 1.94 2.07 2.21 2.28 2.32 2.42 2.55 2.60 2.70 2.78 2.74 2.62 2.63 2.57 2.49 2.48 2.46 2.23 2.01 1.98 2.04 2.07 2.22 2.39 2.32 2.21 2.01 1.82 1.76 1.74 1.65 1.53
0.99 1.07 1.18 1.27 1.38 1.59 1.80 1.92 1.96 2.01 2.01 2.05 2.11 2.20 2.30 2.29 2.37 2.50 2.61 2.72 2.81 2.89 2.79 2.65 2.52 2.48 2.44 2.32 2.15 1.95 1.85 1.97 2.08 2.18 2.26 2.15 2.04 1.84 1.68 1.61 1.52 1.48 1.55
1.01 1.06 1.18 1.24 1.31 1.39 1.52 1.59 1.72 1.84 1.91 1.98 2.06 2.10 2.13 2.22 2.34 2.41 2.52 2.51 2.58 2.61 2.59 2.51 2.48 2.43 2.34 2.19 2.11 1.92 1.80 1.92 2.10 2.17 2.18 2.05 1.99 1.87 1.77 1.70 1.64 1.63 1.66
1.10 1.12 1.19 1.21 1.24 1.33 1.52 1.60 1.68 1.81 1.96 2.07 2.11 2.06 2.01 2.08 2.13 2.21 2.24 2.27 2.16 2.16 2.09 2.07 2.07 1.99 1.88 1.77 1.65 1.62 1.63 1.72 1.90 1.90 1.96 2.07 2.05 1.99 1.90 1.80 1.72 1.68 1.65

GEFSMW_prec_meanprecacc_354.txt.gz
Total_Precipitation_Accumulation
2.11 2.55 2.85 3.37 3.96 4.40 4.82 5.02 5.10 4.98 4.82 4.46 4.16 3.91 3.66 3.44 3.19 3.00 2.91 2.84 2.78 2.99 3.46 3.23 3.52 3.45 3.48 3.54 3.60 3.76 3.69 3.40 3.59 3.70 3.25 2.61 2.15 2.12 1.89 1.86 1.94 1.99 2.01
2.04 2.56 2.88 3.09 3.50 4.02 4.50 4.83 5.02 4.91 4.53 4.18 4.03 3.95 3.91 3.50 3.22 3.20 3.36 3.18 3.18 3.21 3.24 3.48 3.45 3.50 3.67 3.65 3.63 3.77 3.54 3.18 3.47 3.85 3.90 3.17 2.73 2.23 1.69 1.82 1.98 2.19 2.30
2.32 2.61 2.81 2.95 3.19 3.59 3.90 4.01 4.20 4.17 4.02 4.06 4.09 4.06 4.10 3.69 3.63 3.64 3.66 3.44 3.44 3.46 3.48 3.46 3.40 3.43 3.25 3.35 3.44 3.46 3.47 3.39 3.30 3.60 3.97 3.55 3.08 2.63 1.99 1.86 1.91 2.19 2.51
2.02 2.22 2.50 2.77 2.94 3.18 3.50 3.71 3.78 3.74 3.67 3.79 3.86 3.77 3.59 3.48 3.65 3.93 3.86 3.59 3.39 3.27 3.11 3.06 3.23 3.25 3.04 3.13 2.80 2.97 3.16 3.16 3.00 3.28 3.35 3.38 3.39 3.30 2.59 2.11 1.93 2.07 2.28
1.76 1.87 2.07 2.39 2.51 2.84 3.12 3.32 3.58 3.67 3.62 3.71 3.70 3.74 3.57 3.56 3.62 3.64 3.69 3.50 3.32 3.01 2.68 2.72 2.94 2.92 2.84 2.76 2.67 2.87 2.70 2.61 2.68 2.93 3.14 3.24 3.35 3.22 3.02 2.55 2.49 2.43 2.28
1.54 1.76 1.93 2.23 2.38 2.51 2.65 2.76 2.98 3.25 3.43 3.47 3.45 3.50 3.46 3.45 3.40 3.39 3.29 3.09 2.94 2.75 2.44 2.34 2.55 2.68 2.74 2.71 2.68 2.74 2.61 2.63 2.76 2.78 2.85 3.12 3.15 3.12 3.25 2.78 2.61 2.62 2.34
1.28 1.50 1.66 1.84 2.04 2.15 2.27 2.42 2.71 3.05 3.14 3.10 3.05 3.17 3.26 3.27 3.20 3.19 3.05 2.84 2.61 2.40 2.34 2.36 2.50 2.54 2.60 2.48 2.53 2.58 2.60 2.77 2.84 2.77 2.71 2.83 2.86 2.97 3.25 3.19 2.84 2.71 2.50
1.04 1.20 1.47 1.77 1.93 1.91 1.98 2.14 2.45 2.72 2.76 2.69 2.83 3.10 3.18 3.21 3.13 3.17 2.87 2.61 2.41 2.36 2.47 2.47 2.35 2.30 2.39 2.24 2.52 2.45 2.51 2.76 2.83 2.56 2.86 2.88 2.85 3.13 3.36 3.46 3.55 3.21 2.89
1.04 1.13 1.23 1.43 1.56 1.62 1.69 1.84 2.27 2.55 2.64 2.72 2.85 2.99 3.12 3.08 3.04 2.95 2.68 2.42 2.44 2.40 2.56 2.55 2.47 2.34 2.39 2.47 2.74 2.69 2.63 2.87 2.86 2.87 3.09 3.03 2.94 3.08 3.20 3.41 3.67 3.77 3.37
0.87 0.95 1.00 1.12 1.22 1.40 1.67 1.86 2.02 2.35 2.46 2.57 2.74 2.77 3.01 2.91 2.75 2.72 2.50 2.26 2.18 2.28 2.51 2.67 2.56 2.41 2.42 2.59 2.77 2.75 2.90 3.09 3.13 3.22 3.30 3.25 3.06 3.14 3.18 3.21 3.46 3.81 3.73
0.77 0.82 0.96 1.09 1.19 1.33 1.55 1.69 1.74 1.98 2.18 2.31 2.51 2.51 2.51 2.58 2.67 2.53 2.27 2.19 2.24 2.35 2.42 2.53 2.52 2.43 2.45 2.58 2.65 2.62 2.94 3.10 3.12 3.11 3.12 3.09 3.25 3.23 3.10 3.21 3.39 3.67 3.76
0.84 0.89 1.05 1.18 1.26 1.40 1.45 1.50 1.59 1.80 2.01 2.21 2.43 2.50 2.49 2.55 2.60 2.46 2.27 2.27 2.35 2.36 2.29 2.35 2.36 2.23 2.25 2.48 2.50 2.56 2.87 3.02 2.90 2.93 2.96 2.73 2.81 2.90 2.76 2.91 2.98 3.13 3.40
0.93 0.98 1.09 1.13 1.13 1.24 1.39 1.43 1.45 1.67 1.90 2.14 2.45 2.62 2.66 2.64 2.57 2.39 2.18 2.10 2.05 2.07 2.07 2.09 2.11 2.16 2.32 2.44 2.44 2.47 2.47 2.49 2.57 2.80 2.93 2.71 2.69 2.60 2.61 2.66 2.64 2.71 2.82
0.96 1.03 1.04 1.16 1.16 1.19 1.33 1.36 1.43 1.54 1.82 2.07 2.28 2.42 2.32 2.26 2.27 2.14 1.96 1.86 1.85 1.87 1.93 2.02 2.10 2.17 2.25 2.32 2.42 2.48 2.38 2.35 2.40 2.55 2.62 2.59 2.55 2.47 2.58 2.51 2.53 2.60 2.77
0.86 0.88 0.89 0.96 1.01 1.15 1.30 1.24 1.28 1.35 1.52 1.73 1.83 1.99 1.98 1.94 1.89 1.93 1.97 1.96 2.00 1.94 2.00 2.08 2.08 2.07 2.06 2.00 2.10 2.18 2.20 2.36 2.30 2.19 2.16 2.17 2.22 2.21 2.27 2.11 2.31 2.58 2.74
0.61 0.58 0.77 0.86 0.82 0.86 0.98 0.96 1.01 1.17 1.35 1.45 1.57 1.82 1.94 1.95 1.92 1.98 2.12 2.14 2.09 2.05 2.07 2.02 2.05 2.04 1.75 1.94 2.02 2.03 2.13 2.26 2.26 2.12 1.99 1.88 1.87 1.82 1.86 1.83 1.93 2.23 2.46
0.61 0.56 0.64 0.79 0.79 0.80 0.83 0.95 1.08 1.22 1.33 1.48 1.63 1.84 1.96 2.05 2.09 2.07 2.17 2.11 2.12 2.18 2.12 2.03 2.03 2.05 2.12 2.19 2.03 1.88 1.85 1.94 1.98 1.94 1.91 1.67 1.58 1.77 1.75 1.81 1.79 1.82 1.99
0.68 0.64 0.63 0.63 0.67 0.75 0.82 0.98 1.26 1.51 1.57 1.72 1.92 2.04 2.18 2.14 2.12 2.12 2.15 2.24 2.32 2.36 2.34 2.27 2.19 2.18 2.15 2.15 1.94 1.93 1.82 1.81 1.81 1.83 1.86 1.85 1.77 1.83 1.97 1.94 1.86 1.74 1.72
0.63 0.68 0.73 0.74 0.80 0.86 0.90 1.07 1.30 1.62 1.81 1.87 1.97 2.13 2.24 2.28 2.29 2.29 2.27 2.39 2.52 2.48 2.41 2.35 2.37 2.31 2.31 2.38 2.17 2.18 1.99 1.97 1.98 2.01 2.02 1.99 1.88 2.04 2.01 1.90 1.88 1.82 1.82
0.74 0.75 0.78 0.91 1.10 1.17 1.18 1.30 1.43 1.56 1.77 1.85 1.96 2.14 2.37 2.43 2.44 2.60 2.70 2.68 2.65 2.52 2.53 2.52 2.49 2.47 2.50 2.73 2.55 2.39 2.18 2.17 2.16 2.27 2.26 2.29 2.13 2.13 2.08 1.92 1.93 1.92 1.94
0.86 0.84 0.87 1.04 1.29 1.42 1.45 1.55 1.70 1.79 1.81 1.88 2.02 2.21 2.39 2.49 2.57 2.76 2.86 2.85 2.79 2.79 2.74 2.65 2.67 2.65 2.63 2.81 2.57 2.37 2.20 2.24 2.39 2.40 2.33 2.37 2.41 2.19 2.19 2.14 2.03 2.02 2.03
0.98 1.01 1.06 1.24 1.48 1.65 1.63 1.71 1.80 1.81 1.84 1.85 1.99 2.13 2.29 2.30 2.38 2.67 2.78 2.90 2.95 2.89 2.80 2.76 2.60 2.59 2.56 2.48 2.34 2.24 2.21 2.30 2.43 2.51 2.45 2.40 2.40 2.16 2.09 1.94 1.91 1.97 1.87
1.02 1.08 1.14 1.34 1.61 1.80 1.83 1.91 1.83 1.91 1.95 1.97 2.09 2.22 2.30 2.34 2.44 2.57 2.62 2.72 2.80 2.76 2.64 2.65 2.59 2.51 2.50 2.48 2.24 2.02 1.99 2.06 2.08 2.24 2.40 2.33 2.21 2.02 1.83 1.77 1.75 1.67 1.55
0.99 1.07 1.19 1.28 1.40 1.61 1.83 1.95 1.98 2.03 2.03 2.06 2.12 2.21 2.32 2.31 2.40 2.53 2.64 2.74 2.82 2.91 2.82 2.68 2.54 2.50 2.46 2.34 2.17 1.96 1.87 1.98 2.10 2.20 2.27 2.16 2.05 1.85 1.69 1.62 1.53 1.49 1.57
1.01 1.07 1.19 1.25 1.32 1.40 1.53 1.60 1.73 1.85 1.93 2.02 2.08 2.11 2.15 2.24 2.36 2.43 2.55 2.53 2.60 2.64 2.63 2.53 2.50 2.45 2.36 2.21 2.14 1.93 1.81 1.93 2.11 2.18 2.20 2.07 2.00 1.88 1.78 1.71 1.66 1.65 1.69
1.12 1.13 1.20 1.22 1.24 1.34 1.52 1.60 1.69 1.82 1.98 2.10 2.13 2.09 2.03 2.10 2.16 2.23 2.26 2.29 2.18 2.17 2.10 2.08 2.08 2.01 1.90 1.81 1.69 1.66 1.66 1.75 1.92 1.92 1.98 2.09 2.07 2.01 1.92 1.82 1.74 1.71 1.68

GEFSMW_prec_meanprecacc_360.txt.gz
Total_Precipitation_Accumulation
2.12 2.56 2.85 3.37 3.96 4.40 4.83 5.04 5.12 5.01 4.86 4.52 4.22 3.97 3.72 3.51 3.24 3.04 2.96 2.91 2.83 3.04 3.51 3.27 3.56 3.49 3.54 3.60 3.64 3.81 3.73 3.45 3.63 3.76 3.33 2.68 2.20 2.16 1.93 1.89 1.97 2.03 2.08
2.05 2.56 2.88 3.09 3.51 4.03 4.51 4.84 5.04 4.93 4.55 4.22 4.08 4.00 3.96 3.56 3.29 3.26 3.42 3.23 3.22 3.25 3.29 3.54 3.50 3.58 3.74 3.71 3.69 3.83 3.60 3.24 3.53 3.94 4.03 3.28 2.83 2.30 1.72 1.85 2.01 2.23 2.37
2.33 2.61 2.82 2.95 3.19 3.59 3.90 4.01 4.21 4.19 4.03 4.08 4.12 4.10 4.13 3.73 3.67 3.69 3.71 3.48 3.48 3.50 3.51 3.50 3.46 3.51 3.31 3.42 3.51 3.52 3.54 3.47 3.39 3.71 4.09 3.67 3.20 2.73 2.04 1.88 1.94 2.25 2.56
2.03 2.22 2.50 2.77 2.94 3.18 3.50 3.71 3.78 3.75 3.68 3.81 3.88 3.79 3.61 3.50 3.67 3.95 3.90 3.63 3.42 3.31 3.14 3.09 3.27 3.31 3.08 3.19 2.85 3.04 3.24 3.24 3.09 3.38 3.45 3.48 3.49 3.39 2.69 2.19 1.98 2.12 2.34
1.76 1.88 2.08 2.40 2.52 2.84 3.12 3.32 3.59 3.68 3.63 3.72 3.72 3.76 3.59 3.58 3.64 3.66 3.72 3.52 3.34 3.03 2.71 2.75 3.00 2.98 2.90 2.82 2.73 2.94 2.79 2.71 2.79 3.03 3.23 3.31 3.42 3.30 3.10 2.63 2.57 2.51 2.36
1.54 1.76 1.94 2.23 2.39 2.51 2.65 2.76 2.98 3.25 3.43 3.48 3.45 3.51 3.47 3.46 3.42 3.42 3.33 3.11 2.96 2.77 2.47 2.37 2.60 2.75 2.81 2.79 2.75 2.84 2.73 2.76 2.87 2.87 2.94 3.20 3.24 3.22 3.34 2.85 2.67 2.70 2.41
1.28 1.51 1.67 1.84 2.05 2.16 2.27 2.42 2.71 3.06 3.14 3.10 3.06 3.18 3.27 3.28 3.22 3.21 3.07 2.85 2.63 2.41 2.36 2.39 2.55 2.60 2.68 2.56 2.62 2.70 2.71 2.87 2.93 2.85 2.79 2.91 2.95 3.05 3.34 3.28 2.91 2.76 2.56
1.05 1.21 1.48 1.79 1.94 1.92 1.99 2.14 2.45 2.72 2.76 2.70 2.84 3.12 3.19 3.23 3.16 3.20 2.88 2.63 2.42 2.38 2.49 2.50 2.38 2.34 2.43 2.31 2.61 2.54 2.58 2.82 2.90 2.61 2.90 2.93 2.91 3.19 3.44 3.54 3.62 3.27 2.93
1.04 1.14 1.24 1.45 1.57 1.63 1.70 1.85 2.28 2.57 2.66 2.74 2.87 3.01 3.13 3.10 3.06 2.97 2.70 2.44 2.46 2.42 2.58 2.57 2.49 2.38 2.44 2.56 2.84 2.75 2.67 2.90 2.89 2.90 3.13 3.07 2.99 3.13 3.27 3.48 3.73 3.85 3.43
0.87 0.95 1.01 1.13 1.24 1.41 1.68 1.87 2.05 2.37 2.48 2.58 2.75 2.78 3.02 2.92 2.77 2.74 2.52 2.29 2.20 2.31 2.55 2.71 2.60 2.46 2.47 2.64 2.82 2.78 2.93 3.12 3.16 3.25 3.34 3.30 3.11 3.20 3.24 3.29 3.53 3.87 3.79
0.78 0.83 0.96 1.10 1.20 1.35 1.57 1.71 1.76 1.99 2.18 2.32 2.52 2.51 2.52 2.60 2.70 2.55 2.28 2.22 2.26 2.39 2.46 2.57 2.55 2.46 2.48 2.61 2.68 2.64 2.97 3.13 3.15 3.14 3.15 3.13 3.29 3.27 3.15 3.26 3.44 3.72 3.81
0.84 0.89 1.06 1.19 1.27 1.42 1.48 1.53 1.60 1.81 2.02 2.22 2.44 2.51 2.51 2.57 2.62 2.48 2.29 2.29 2.37 2.39 2.34 2.40 2.39 2.26 2.29 2.51 2.53 2.58 2.90 3.06 2.93 2.95 2.99 2.75 2.85 2.95 2.81 2.96 3.03 3.18 3.45
0.94 1.00 1.10 1.16 1.15 1.26 1.41 1.45 1.47 1.68 1.91 2.15 2.46 2.63 2.69 2.67 2.60 2.41 2.21 2.12 2.08 2.12 2.13 2.14 2.16 2.21 2.37 2.47 2.46 2.49 2.49 2.52 2.60 2.83 2.95 2.74 2.73 2.64 2.66 2.71 2.69 2.76 2.87
0.96 1.04 1.05 1.18 1.17 1.20 1.35 1.38 1.44 1.55 1.83 2.08 2.29 2.45 2.35 2.29 2.31 2.18 1.99 1.90 1.90 1.93 2.00 2.08 2.17 2.23 2.30 2.35 2.44 2.50 2.41 2.38 2.43 2.58 2.67 2.64 2.59 2.51 2.63 2.56 2.59 2.66 2.83
0.86 0.89 0.90 0.97 1.02 1.16 1.31 1.25 1.29 1.37 1.54 1.74 1.85 2.02 2.02 1.98 1.97 2.00 2.02 2.03 2.07 2.00 2.08 2.15 2.16 2.14 2.11 2.04 2.14 2.21 2.25 2.40 2.34 2.24 2.22 2.21 2.26 2.25 2.31 2.15 2.36 2.63 2.79
0.61 0.58 0.77 0.87 0.84 0.86 0.98 0.96 1.02 1.18 1.36 1.46 1.59 1.85 1.99 2.02 2.01 2.07 2.21 2.25 2.19 2.14 2.15 2.09 2.12 2.09 1.79 1.99 2.06 2.07 2.17 2.30 2.31 2.17 2.03 1.92 1.90 1.84 1.88 1.86 1.97 2.27 2.49
0.61 0.57 0.65 0.81 0.83 0.83 0.84 0.96 1.10 1.23 1.34 1.49 1.64 1.86 2.00 2.10 2.17 2.18 2.30 2.24 2.23 2.28 2.19 2.10 2.09 2.10 2.17 2.25 2.06 1.91 1.87 1.98 2.03 1.99 1.96 1.70 1.60 1.81 1.78 1.84 1.81 1.83 2.00
0.69 0.67 0.65 0.66 0.73 0.81 0.86 1.00 1.28 1.53 1.59 1.74 1.93 2.05 2.20 2.17 2.15 2.16 2.21 2.31 2.41 2.45 2.42 2.33 2.24 2.22 2.19 2.18 1.96 1.95 1.84 1.84 1.86 1.88 1.91 1.89 1.81 1.87 2.01 1.98 1.89 1.76 1.74
0.65 0.72 0.76 0.78 0.87 0.93 0.96 1.12 1.32 1.64 1.84 1.89 2.00 2.16 2.27 2.30 2.31 2.31 2.30 2.43 2.55 2.52 2.46 2.39 2.41 2.36 2.36 2.40 2.18 2.19 2.01 2.01 2.02 2.05 2.06 2.04 1.93 2.09 2.03 1.93 1.91 1.86 1.85
0.75 0.76 0.80 0.93 1.14 1.21 1.24 1.36 1.47 1.60 1.79 1.88 2.01 2.18 2.41 2.46 2.47 2.62 2.72 2.70 2.67 2.55 2.56 2.56 2.52 2.51 2.53 2.75 2.56 2.40 2.21 2.20 2.20 2.30 2.30 2.35 2.18 2.16 2.09 1.94 1.95 1.95 1.98
0.87 0.85 0.88 1.06 1.32 1.46 1.51 1.62 1.75 1.85 1.85 1.91 2.06 2.25 2.43 2.53 2.59 2.78 2.87 2.87 2.82 2.82 2.77 2.68 2.70 2.69 2.66 2.83 2.58 2.38 2.22 2.27 2.43 2.44 2.37 2.41 2.43 2.20 2.21 2.15 2.04 2.04 2.06
0.99 1.02 1.07 1.25 1.50 1.70 1.67 1.76 1.85 1.86 1.89 1.87 2.01 2.16 2.32 2.33 2.40 2.70 2.80 2.92 2.97 2.92 2.83 2.80 2.64 2.64 2.60 2.50 2.35 2.25 2.22 2.32 2.47 2.56 2.51 2.45 2.43 2.18 2.10 1.96 1.92 1.98 1.88
1.02 1.09 1.15 1.36 1.63 1.83 1.86 1.94 1.87 1.95 1.99 2.01 2.12 2.25 2.33 2.38 2.48 2.59 2.64 2.74 2.81 2.77 2.65 2.68 2.62 2.55 2.54 2.51 2.25 2.03 2.01 2.08 2.11 2.27 2.45 2.38 2.27 2.06 1.85 1.80 1.76 1.68 1.57
1.00 1.08 1.20 1.30 1.42 1.62 1.84 1.97 2.01 2.05 2.06 2.11 2.17 2.27 2.37 2.35 2.42 2.55 2.66 2.76 2.83 2.92 2.83 2.69 2.56 2.52 2.48 2.36 2.19 1.98 1.88 2.01 2.12 2.22 2.30 2.19 2.09 1.89 1.73 1.64 1.56 1.51 1.59
1.02 1.08 1.20 1.27 1.34 1.41 1.54 1.61 1.74 1.87 1.96 2.07 2.16 2.18 2.21 2.28 2.39 2.46 2.57 2.56 2.63 2.67 2.64 2.55 2.51 2.46 2.37 2.23 2.16 1.96 1.83 1.95 2.13 2.21 2.22 2.09 2.03 1.90 1.80 1.73 1.68 1.68 1.71
1.13 1.15 1.22 1.25 1.27 1.36 1.55 1.62 1.70 1.84 2.01 2.14 2.17 2.14 2.09 2.14 2.19 2.26 2.28 2.31 2.20 2.19 2.13 2.11 2.11 2.03 1.93 1.83 1.70 1.67 1.67 1.76 1.94 1.94 1.99 2.12 2.11 2.05 1.96 1.86 1.77 1.74 1.71